When you browse on this site, cookies collect data to enhance your experience and personalize the content and advertising you see.
Visit our Privacy Policy to learn more. By continuing to use the site, you agree to this use of cookies and data.
EN

Hourly Weather Peches'ky

Today, 11 July, Saturday

Time Temperature Precipitation Wind Pressure Humidity
00:00 +18°C° 0 mm 3 mps 734 mmHg 81%
01:00 +18°C° 0 mm 3 mps 734 mmHg 81%
02:00 +18°C° 0 mm 3 mps 734 mmHg 80%
03:00 +18°C° 0 mm 3 mps 734 mmHg 82%
04:00 +17°C° 0 mm 3 mps 734 mmHg 83%
05:00 +17°C° 0 mm 3 mps 734 mmHg 84%
06:00 +19°C° 0 mm 4 mps 734 mmHg 81%
07:00 +20°C° 0 mm 4 mps 734 mmHg 78%
08:00 +22°C° 0 mm 4 mps 734 mmHg 74%
09:00 +23°C° 0 mm 4 mps 734 mmHg 71%
10:00 +26°C° 0 mm 4 mps 734 mmHg 68%
11:00 +27°C° 0 mm 4 mps 735 mmHg 65%
12:00 +27°C° 0.2 mm 4 mps 734 mmHg 64%
13:00 +28°C° 0.2 mm 4 mps 734 mmHg 63%
14:00 +28°C° 0.2 mm 5 mps 734 mmHg 62%
15:00 +28°C° 0.2 mm 4 mps 734 mmHg 63%
16:00 +28°C° 0.2 mm 4 mps 733 mmHg 65%
17:00 +28°C° 0.2 mm 4 mps 733 mmHg 67%
18:00 +26°C° 0 mm 3 mps 733 mmHg 70%
19:00 +24°C° 0 mm 3 mps 733 mmHg 74%
20:00 +22°C° 0 mm 3 mps 733 mmHg 77%
21:00 +21°C° 0 mm 2 mps 733 mmHg 76%
22:00 +20°C° 0 mm 2 mps 733 mmHg 76%
23:00 +19°C° 0 mm 2 mps 733 mmHg 75%

Tomorrow, 12 July, Sunday

Time Temperature Precipitation Wind Pressure Humidity
00:00 +19°C° 0 mm 2 mps 733 mmHg 77%
01:00 +19°C° 0 mm 1 mps 733 mmHg 79%
02:00 +19°C° 0 mm 1 mps 733 mmHg 81%
03:00 +19°C° 0 mm 1 mps 733 mmHg 84%
04:00 +18°C° 0 mm 1 mps 733 mmHg 88%
05:00 +17°C° 0 mm 2 mps 732 mmHg 91%
06:00 +18°C° 0 mm 2 mps 733 mmHg 89%
07:00 +19°C° 0 mm 2 mps 733 mmHg 88%
08:00 +20°C° 0 mm 3 mps 733 mmHg 86%
09:00 +19°C° 0 mm 3 mps 733 mmHg 86%
10:00 +19°C° 0 mm 4 mps 733 mmHg 87%
11:00 +19°C° 0 mm 5 mps 733 mmHg 87%
12:00 +17°C° 0.1 mm 5 mps 733 mmHg 88%
13:00 +16°C° 0.1 mm 6 mps 733 mmHg 88%
14:00 +15°C° 0.1 mm 7 mps 733 mmHg 89%
15:00 +14°C° 0 mm 7 mps 733 mmHg 89%
16:00 +12°C° 0 mm 8 mps 733 mmHg 88%
17:00 +11°C° 0 mm 8 mps 734 mmHg 88%
18:00 +11°C° 0 mm 7 mps 734 mmHg 88%
19:00 +10°C° 0 mm 7 mps 734 mmHg 88%
20:00 +10°C° 0 mm 7 mps 735 mmHg 88%
21:00 +10°C° 0 mm 6 mps 735 mmHg 88%
22:00 +9°C° 0 mm 6 mps 735 mmHg 88%
23:00 +9°C° 0 mm 6 mps 735 mmHg 88%

Day after tomorrow, 13 July, Monday

Time Temperature Precipitation Wind Pressure Humidity
00:00 +8°C° 0 mm 6 mps 735 mmHg 89%
01:00 +8°C° 0 mm 6 mps 735 mmHg 90%
02:00 +7°C° 0 mm 5 mps 735 mmHg 91%
03:00 +7°C° 0 mm 5 mps 735 mmHg 92%
04:00 +7°C° 0 mm 5 mps 734 mmHg 94%
05:00 +7°C° 0 mm 5 mps 734 mmHg 96%
06:00 +9°C° 0 mm 5 mps 734 mmHg 90%
07:00 +11°C° 0 mm 6 mps 734 mmHg 85%
08:00 +13°C° 0 mm 6 mps 734 mmHg 80%
09:00 +15°C° 0 mm 6 mps 734 mmHg 75%
10:00 +16°C° 0 mm 6 mps 734 mmHg 70%
11:00 +17°C° 0 mm 6 mps 734 mmHg 66%
12:00 +17°C° 0 mm 6 mps 734 mmHg 64%
13:00 +19°C° 0 mm 6 mps 734 mmHg 62%
14:00 +19°C° 0 mm 6 mps 734 mmHg 60%
15:00 +19°C° 0.1 mm 6 mps 734 mmHg 62%
16:00 +19°C° 0.1 mm 6 mps 733 mmHg 65%
17:00 +17°C° 0.1 mm 6 mps 733 mmHg 67%
18:00 +16°C° 0 mm 5 mps 733 mmHg 74%
19:00 +15°C° 0 mm 4 mps 733 mmHg 80%
20:00 +13°C° 0 mm 3 mps 733 mmHg 86%
21:00 +12°C° 0 mm 3 mps 733 mmHg 89%
22:00 +12°C° 0 mm 3 mps 733 mmHg 91%
23:00 +11°C° 0 mm 3 mps 733 mmHg 93%

14 July, Tuesday

Time Temperature Precipitation Wind Pressure Humidity
00:00 +10°C° 0 mm 3 mps 733 mmHg 94%
01:00 +10°C° 0 mm 3 mps 733 mmHg 94%
02:00 +9°C° 0 mm 3 mps 734 mmHg 95%
03:00 +9°C° 0 mm 3 mps 733 mmHg 95%
04:00 +9°C° 0 mm 3 mps 733 mmHg 95%
05:00 +9°C° 0 mm 3 mps 733 mmHg 95%
06:00 +11°C° 0 mm 3 mps 733 mmHg 90%
07:00 +13°C° 0 mm 4 mps 734 mmHg 85%
08:00 +15°C° 0 mm 4 mps 734 mmHg 79%
09:00 +17°C° 0.1 mm 4 mps 734 mmHg 75%
10:00 +17°C° 0.1 mm 5 mps 734 mmHg 71%
11:00 +19°C° 0.1 mm 5 mps 734 mmHg 67%
12:00 +20°C° 0.1 mm 5 mps 734 mmHg 66%
13:00 +20°C° 0.1 mm 5 mps 734 mmHg 64%
14:00 +21°C° 0.1 mm 5 mps 733 mmHg 63%
15:00 +21°C° 0.1 mm 5 mps 733 mmHg 65%
16:00 +21°C° 0.1 mm 4 mps 733 mmHg 66%
17:00 +20°C° 0.1 mm 4 mps 733 mmHg 67%
18:00 +19°C° 0.1 mm 4 mps 733 mmHg 73%
19:00 +18°C° 0.1 mm 3 mps 733 mmHg 80%
20:00 +16°C° 0.1 mm 3 mps 733 mmHg 86%
21:00 +15°C° 0 mm 2 mps 733 mmHg 88%
22:00 +15°C° 0 mm 2 mps 733 mmHg 90%
23:00 +14°C° 0 mm 2 mps 734 mmHg 92%

15 July, Wednesday

Time Temperature Precipitation Wind Pressure Humidity
00:00 +13°C° 0 mm 2 mps 734 mmHg 93%
01:00 +13°C° 0 mm 2 mps 734 mmHg 93%
02:00 +13°C° 0 mm 2 mps 734 mmHg 94%
03:00 +12°C° 0 mm 2 mps 734 mmHg 94%
04:00 +12°C° 0 mm 2 mps 734 mmHg 94%
05:00 +12°C° 0 mm 2 mps 734 mmHg 94%
06:00 +14°C° 0 mm 2 mps 734 mmHg 89%
07:00 +16°C° 0 mm 2 mps 734 mmHg 84%
08:00 +18°C° 0 mm 2 mps 734 mmHg 79%
09:00 +19°C° 0 mm 2 mps 734 mmHg 73%
10:00 +20°C° 0 mm 2 mps 734 mmHg 66%
11:00 +21°C° 0 mm 2 mps 734 mmHg 60%
12:00 +23°C° 0 mm 2 mps 734 mmHg 58%
13:00 +23°C° 0 mm 2 mps 734 mmHg 56%
14:00 +24°C° 0 mm 2 mps 734 mmHg 54%
15:00 +24°C° 0 mm 1 mps 734 mmHg 54%
16:00 +24°C° 0 mm 1 mps 734 mmHg 55%
17:00 +24°C° 0 mm 1 mps 733 mmHg 56%
18:00 +22°C° 0 mm 1 mps 733 mmHg 62%
19:00 +20°C° 0 mm 1 mps 733 mmHg 68%
20:00 +19°C° 0 mm 1 mps 733 mmHg 74%
21:00 +18°C° 0 mm 1 mps 733 mmHg 77%
22:00 +16°C° 0 mm 1 mps 733 mmHg 80%
23:00 +15°C° 0 mm 1 mps 733 mmHg 83%

16 July, Thursday

Time Temperature Precipitation Wind Pressure Humidity
00:00 +15°C° 0 mm 1 mps 733 mmHg 83%
01:00 +15°C° 0 mm 1 mps 733 mmHg 83%
02:00 +14°C° 0 mm 1 mps 733 mmHg 83%
03:00 +14°C° 0 mm 1 mps 733 mmHg 83%
04:00 +14°C° 0 mm 1 mps 732 mmHg 83%
05:00 +14°C° 0 mm 1 mps 732 mmHg 83%
06:00 +16°C° 0 mm 2 mps 732 mmHg 78%
07:00 +18°C° 0 mm 2 mps 732 mmHg 74%
08:00 +20°C° 0 mm 2 mps 732 mmHg 70%
09:00 +21°C° 0 mm 3 mps 732 mmHg 67%
10:00 +22°C° 0 mm 3 mps 732 mmHg 63%
11:00 +24°C° 0 mm 3 mps 732 mmHg 60%
12:00 +24°C° 0.5 mm 3 mps 732 mmHg 62%
13:00 +24°C° 0.5 mm 3 mps 731 mmHg 64%
14:00 +24°C° 0.5 mm 3 mps 731 mmHg 66%
15:00 +24°C° 0.1 mm 3 mps 731 mmHg 65%
16:00 +25°C° 0.1 mm 3 mps 731 mmHg 65%
17:00 +25°C° 0.1 mm 3 mps 730 mmHg 64%
18:00 +22°C° 0.2 mm 3 mps 730 mmHg 70%
19:00 +21°C° 0.2 mm 3 mps 730 mmHg 77%
20:00 +19°C° 0.2 mm 3 mps 730 mmHg 83%
21:00 +18°C° 0 mm 3 mps 730 mmHg 85%
22:00 +18°C° 0 mm 3 mps 730 mmHg 88%
23:00 +17°C° 0 mm 3 mps 730 mmHg 90%
Show more